Gwinn, MI

12:20 AM EST on February 24, 2017 (GMT -0500)
Sawyer International

Weather History for KSAW - January, 2013

Change the Weather History Date:

Sunday, January 6, 2013

  Actual Average (KESC) Record (KESC)
Temperature  
Mean Temperature 20 °F -  
Max Temperature 31 °F 24 °F 48 °F (2012)
Min Temperature 9 °F 8 °F -16 °F (2009)
Degree Days  
Heating Degree Days 45    
Moisture  
Dew Point 18 °F    
Average Humidity 86    
Maximum Humidity 93    
Minimum Humidity 74    
Precipitation  
Precipitation 0.00 in - - ()
Sea Level Pressure  
Sea Level Pressure 29.92 in    
Wind  
Wind Speed 8 mph (NNW)    
Max Wind Speed 24 mph    
Max Gust Speed 36 mph    
Visibility 9 miles    
Events Snow    
Averages and records for this station are not official NWS values.
T = Trace of Precipitation, MM = Missing Value Source: NWS Daily Summary

Daily Weather History Graph

Daily Weather History Graph

Search for Another Location

Airport or City:

Trip Planner

Search our weather history database for the weather conditions in past years. The results will help you decide how hot, cold, wet, or windy it might be!

Date:

Astronomy

Jan. 06, 2013 Rise Set
Actual Time 8:32 AM EST 5:19 PM EST
Civil Twilight 7:57 AM EST 5:53 PM EST
Nautical Twilight 7:20 AM EST 6:31 PM EST
Astronomical Twilight 6:43 AM EST 7:07 PM EST
Moon 2:38 AM EST (1/6) 12:52 PM EST (1/6)
Length of Visible Light 9h 55m
Length of Day
8h 46m
Waning Crescent, 33% of the Moon is Illuminated
Jan 6
Waning Crescent
Jan 11
New
Jan 18
First Quarter
Jan 26
Full
Feb 3
Last Quarter

Hourly Weather History & Observations

Time (EST) Temp. Windchill Dew Point Humidity Pressure Visibility Wind Dir Wind Speed Gust Speed Precip Events Conditions
12:17 AM 20.3 °F 11.5 °F 16.7 °F 86% 29.75 in 10.0 mi WNW 6.9 mph - N/A   Scattered Clouds
12:37 AM 20.7 °F 13.0 °F 16.7 °F 85% 29.74 in 10.0 mi WNW 5.8 mph - N/A   Mostly Cloudy
12:57 AM 21.0 °F 13.4 °F 17.1 °F 85% 29.73 in 10.0 mi WNW 5.8 mph - N/A   Overcast
1:17 AM 21.2 °F - 17.4 °F 85% 29.73 in 10.0 mi Calm Calm - N/A   Overcast
1:37 AM 21.4 °F 16.6 °F 17.8 °F 86% 29.72 in 10.0 mi WNW 3.5 mph - N/A   Overcast
1:57 AM 22.3 °F 16.1 °F 18.7 °F 86% 29.72 in 10.0 mi NW 4.6 mph - N/A   Overcast
2:16 AM 23.7 °F 16.6 °F 20.5 °F 87% 29.72 in 10.0 mi NW 5.8 mph - N/A   Overcast
2:37 AM 26.1 °F 16.8 °F 23.0 °F 88% 29.72 in 10.0 mi NNW 9.2 mph - N/A   Overcast
2:57 AM 27.3 °F 18.4 °F 24.3 °F 88% 29.73 in 10.0 mi NW 9.2 mph - N/A   Overcast
3:16 AM 27.9 °F 22.6 °F 25.0 °F 89% 29.74 in 10.0 mi NW 4.6 mph - N/A   Overcast
3:37 AM 28.4 °F 21.2 °F 26.2 °F 92% 29.74 in 10.0 mi NW 6.9 mph - N/A   Overcast
3:57 AM 30.2 °F 23.4 °F 28.4 °F 93% 29.75 in 10.0 mi NNE 6.9 mph - N/A   Overcast
4:17 AM 30.0 °F 25.2 °F 27.7 °F 91% 29.75 in 10.0 mi NE 4.6 mph - N/A   Overcast
4:37 AM 29.8 °F 26.3 °F 27.5 °F 91% 29.75 in 10.0 mi North 3.5 mph - N/A   Overcast
4:56 AM 30.2 °F 20.2 °F 28.4 °F 93% 29.75 in 10.0 mi NNE 12.7 mph 19.6 mph N/A   Overcast
5:17 AM 31.6 °F 20.0 °F 29.3 °F 91% 29.76 in 5.0 mi NNE 18.4 mph - N/A Snow Light Snow
5:37 AM 30.6 °F 17.0 °F 28.8 °F 93% 29.77 in 1.2 mi North 24.2 mph 35.7 mph N/A Snow Light Snow
5:56 AM 29.1 °F 15.7 °F 27.3 °F 93% 29.79 in 0.8 mi North 21.9 mph 35.7 mph N/A Snow Light Snow
6:50 AM 28.4 °F 15.8 °F 26.6 °F 93% 29.83 in 1.0 mi North 18.4 mph 26.5 mph N/A Snow Snow
7:55 AM 26.6 °F 12.7 °F 23.0 °F 86% 29.89 in 2.0 mi North 20.7 mph 29.9 mph N/A Snow Light Snow
8:50 AM 24.8 °F 11.5 °F 23.0 °F 93% 29.92 in 5.0 mi North 17.3 mph 26.5 mph N/A Snow Light Snow
9:50 AM 24.8 °F 10.3 °F 19.4 °F 80% 29.96 in 7.0 mi North 20.7 mph 26.5 mph N/A   Overcast
10:50 AM 23.0 °F 10.6 °F 17.6 °F 80% 29.99 in 10.0 mi North 13.8 mph 21.9 mph N/A   Overcast
11:50 AM 23.0 °F 8.7 °F 17.6 °F 80% 30.02 in 10.0 mi North 18.4 mph 24.2 mph N/A   Overcast
12:55 PM 23.0 °F 12.4 °F 17.6 °F 80% 30.02 in 10.0 mi North 10.4 mph - N/A   Overcast
1:50 PM 23.0 °F 12.4 °F 17.6 °F 80% 30.02 in 10.0 mi NW 10.4 mph - N/A   Overcast
2:50 PM 23.0 °F 12.4 °F 15.8 °F 74% 30.04 in 10.0 mi NNW 10.4 mph - N/A   Overcast
3:55 PM 21.2 °F 10.9 °F 14.0 °F 74% 30.08 in 10.0 mi North 9.2 mph - N/A   Overcast
4:50 PM 21.2 °F 11.7 °F 14.0 °F 74% 30.10 in 10.0 mi North 8.1 mph - N/A   Overcast
5:55 PM 21.2 °F 13.6 °F 14.0 °F 74% 30.12 in 10.0 mi North 5.8 mph - N/A   Overcast
6:50 PM 17.6 °F - 12.2 °F 79% 30.12 in 10.0 mi Calm Calm - N/A   Scattered Clouds
7:55 PM 14.0 °F - 10.4 °F 86% 30.14 in 10.0 mi Calm Calm - N/A   Overcast
8:50 PM 10.4 °F - 8.6 °F 92% 30.13 in 10.0 mi Calm Calm - N/A   Clear
9:55 PM 10.4 °F - 8.6 °F 92% 30.13 in 10.0 mi Calm Calm - N/A   Clear
10:16 PM 12.7 °F - 10.0 °F 89% 30.12 in 10.0 mi Calm Calm - N/A   Clear
10:37 PM 12.7 °F 6.7 °F 10.4 °F 90% 30.13 in 10.0 mi SSE 3.5 mph - N/A   Clear
10:57 PM 10.6 °F - 8.4 °F 91% 30.14 in 10.0 mi Calm Calm - N/A   Clear
11:16 PM 9.0 °F 2.4 °F 6.6 °F 90% 30.14 in 10.0 mi SSW 3.5 mph - N/A   Clear
11:37 PM 11.5 °F 0.9 °F 9.3 °F 91% 30.13 in 10.0 mi South 6.9 mph - N/A   Clear
11:57 PM 11.8 °F 1.3 °F 9.0 °F 88% 30.13 in 10.0 mi South 6.9 mph - N/A   Clear